Location: Ar Ranvel
(48.3000°N, 4.8833°W)
Time: 03:13:10
(UTC+00:00)

Cosmos 2322 Rocket - Pass Details

Date: 30 October 2021
Orbit: 832 x 851 km, 71.0° (Epoch: 01 December)

Event Time Altitude Azimuth Distance (km) Brightness Sun altitude
Rises 18:16:21 0° 222° (SW) 3,367 6.1 -12.6°
Reaches altitude 10° 18:18:50 10° 227° (SW) 2,438 5.4 -13.0°
Maximum altitude 18:24:18 53° 304° (WNW) 1,022 2.9 -13.9°
Drops below altitude 10° 18:29:49 10° 21° (NNE) 2,460 4.4 -14.8°
Sets 18:32:20 0° 26° (NNE) 3,401 5.1 -15.2°
